Station 45008 (LLNR 10010) - SOUTH HURON - 43NM East of Oscoda, MI Image indicating link to RSS feed of recent meteorological observations for station 45008


Conditions at 45008 as of
(5:30 pm EDT)
2130 GMT on 04/19/2024:
     

Click on the graph icon in the table below to see a time series plot of the last five days of that observation.

5-day plot - Wind Direction Wind Direction (WDIR):WSW ( 240 deg true )
5-day plot - Wind Speed Wind Speed (WSPD): 15.5 kts
5-day plot - Wind Gust Wind Gust (GST): 19.4 kts
5-day plot - Atmospheric Pressure Atmospheric Pressure (PRES):29.92 in
5-day plot - Air Temperature Air Temperature (ATMP): 43.3 °F
5-day plot - Water Temperature Water Temperature (WTMP): 38.8 °F
5-day plot - Dew Point Dew Point (DEWP): 35.4 °F
5-day plot - Wind Chill Wind Chill (CHILL): 35.8 °F
5-day plot - Wind Speed at 10 Meters Wind Speed at 10 meters (WSPD10M): 15.5 kts
5-day plot - Wind Speed at 20 Meters Wind Speed at 20 meters (WSPD20M): 15.5 kts
5-day plot -  Wind Speed, Wind Gust and Atmospheric Pressure Combined plot of Wind Speed, Gust, and Air Pressure
Supplemental Measurements
Highest 1-minute Wind Speed
Time (EDT)5-day plot - 1-Minute Wind Speed WSPD 5-day plot - 1-Minute Wind Direction WDIR
5:27 pm 17.5 kts-
Previous observations
TIME
(EDT)
5-day plot - Wind Direction
WDIR
 
5-day plot - Wind Speed
WSPD
kts
5-day plot - Wind Gust
GST
kts
5-day plot - Wave Height
WVHT
ft
5-day plot - Dominant Wave Period
DPD
sec
5-day plot - Average Wave Period
APD
sec
5-day plot - Mean Wave Direction
MWD
 
5-day plot - Atmospheric Pressure
PRES
in
5-day plot - Pressure Tendency
PTDY
in
5-day plot - Air Temperature
ATMP
°F
5-day plot - Water Temperature
WTMP
°F
5-day plot - Dew Point
DEWP
°F
5-day plot - Salinity
SAL
psu
5-day plot - Visibility
VIS
nmi
5-day plot - Tide (above MLLW)
TIDE
ft
2024-04-19 05:20 pmWSW 15.5 17.5 2.6 43.4WSW29.91- 43.3 38.8 35.2---
2024-04-19 05:10 pmWSW 17.5 21.4 2.6-3.4WSW29.91- 43.5 39.0 34.9---
2024-04-19 05:00 pmWSW 17.5 21.4----29.91+0.02 43.7 39.0 34.9---
2024-04-19 04:50 pmWSW 15.5 19.4 2.6 43.4WSW29.91- 43.7 38.8 35.2---
2024-04-19 04:40 pmWSW 15.5 17.5 2.6-3.4WSW29.91- 43.5 39.0 35.6---
2024-04-19 04:30 pmWSW 15.5 17.5----29.91- 43.3 39.0 36.3---
2024-04-19 04:20 pmWSW 15.5 19.4 2.3 43.2WSW29.91- 43.5 39.0 36.3---
2024-04-19 04:10 pmWSW 15.5 19.4 2.3-3.2WSW29.90- 43.7 39.0 36.1---
2024-04-19 04:00 pmWSW 15.5 19.4----29.90+0.00 43.7 39.0 36.0---
2024-04-19 03:50 pmWSW 15.5 19.4 2.3 43.2WSW29.90- 43.7 39.0 36.1---
2024-04-19 03:40 pmWSW 15.5 17.5----29.90- 43.2 39.0 36.1---
2024-04-19 03:30 pmWSW 15.5 17.5----29.90- 43.0 39.0 36.7---
2024-04-19 03:20 pmWSW 15.5 19.4 2.3 43.2WSW29.90- 42.8 39.0 36.9---
2024-04-19 03:10 pmWSW 13.6 17.5 2.3-3.2WSW29.90- 42.8 39.0 37.0---
2024-04-19 03:00 pmWSW 13.6 15.5----29.90+0.00 42.6 39.2 37.2---
2024-04-19 02:50 pmWSW 13.6 15.5 2.3 43.3 SW29.90- 42.8 39.2 37.0---
2024-04-19 02:40 pmWSW 13.6 17.5 2.3-3.3 SW29.90- 42.8 39.0 36.9---
2024-04-19 02:30 pmWSW 15.5 21.4----29.89- 42.8 39.0 37.0---
2024-04-19 02:20 pmWSW 15.5 19.4 2.3 43.2WSW29.89- 42.6 39.2 37.0---
2024-04-19 02:10 pmWSW 15.5 17.5 2.3-3.2WSW29.89- 42.3 39.0 37.6---
2024-04-19 02:00 pmWSW 15.5 17.5----29.89-0.02 42.3 39.0 38.3---
2024-04-19 01:50 pmWSW 15.5 17.5 2.0 33.0WSW29.89- 42.1 39.0 38.3---
2024-04-19 01:40 pmWSW 13.6 17.5----29.89- 42.1 39.2 38.1---
2024-04-19 01:30 pmWSW 13.6 17.5----29.89- 42.1 39.2 37.9---
2024-04-19 01:20 pmWSW 13.6 17.5 1.6 32.8WSW29.89- 42.3 39.0 38.1---
2024-04-19 01:10 pmWSW 15.5 17.5----29.90- 41.9 39.2 38.1---
2024-04-19 01:00 pmWSW 13.6 17.5----29.89+0.00 41.9 39.0 38.3---
2024-04-19 12:50 pm W 11.7 15.5 1.3 32.5 W29.90- 41.4 39.0 38.5---
2024-04-19 12:40 pm W 11.7 15.5 1.3-2.5 W29.90- 41.4 39.0 38.8---
2024-04-19 12:30 pm W 13.6 15.5----29.90- 41.5 39.0 39.0---
2024-04-19 12:20 pm W 11.7 13.6 0.7-2.3-29.90- 41.5 39.0 39.0---
2024-04-19 12:10 pmWSW 11.7 15.5 0.7-2.3-29.90- 41.4 39.0 39.4---
2024-04-19 12:00 pmWSW 9.7 11.7----29.90+0.02 41.0 39.0 39.6---
2024-04-19 11:50 amWSW 11.7 13.6 0.7-2.3-29.90- 41.2 39.0 39.7---
2024-04-19 11:40 am W 11.7 13.6----29.90- 41.2 39.0 39.7---
2024-04-19 11:30 am W 9.7 13.6----29.90- 41.0 39.0 39.9---
2024-04-19 11:20 amWSW 9.7 11.7 0.7-2.2-29.90- 41.0 39.0 40.1---
2024-04-19 11:10 amWSW 9.7 11.7 0.7-2.2-29.91- 41.0 39.0 40.3---
2024-04-19 11:00 amWSW 9.7 11.7----29.91+0.03 40.6 38.8 40.1---
2024-04-19 10:50 amWSW 9.7 9.7 0.7-2.3-29.90- 40.5 39.0 40.1---
2024-04-19 10:40 amWSW 9.7 9.7----29.90- 40.5 38.8 40.1---
2024-04-19 10:30 amWSW 9.7 9.7----29.90- 40.5 38.8 40.1---
2024-04-19 10:20 am W 7.8 9.7 0.7-2.3-29.89- 40.8 38.8 40.6---
2024-04-19 10:10 am W 7.8 7.8 0.7-2.3-29.89- 40.5 38.8 40.3---
2024-04-19 10:00 am W 5.8 7.8----29.89+0.00 40.6 38.8 40.5---
2024-04-19 09:50 am W 7.8 9.7 0.3-2.5-29.89- 40.6 38.8 40.5---
2024-04-19 09:40 am W 9.7 11.7----29.89- 40.8 38.8 40.6---
2024-04-19 09:30 am W 9.7 11.7----29.89- 41.0 38.8 41.0---
2024-04-19 09:20 am W 9.7 11.7 0.3-3.2-29.89- 41.0 38.8 41.0---
2024-04-19 09:10 am W 9.7 11.7 0.3-3.2-29.89- 41.0 38.8 41.0---
2024-04-19 09:00 amWNW 7.8 9.7----29.88+0.00 41.0 38.8 41.0---
2024-04-19 08:50 amWNW 7.8 9.7 0.3-3.1-29.88- 41.4 38.8 41.4---
2024-04-19 08:40 amWNW 7.8 9.7----29.88- 41.0 38.8 41.0---
2024-04-19 08:30 amWNW 5.8 7.8----29.88- 40.5 38.8 40.5---
2024-04-19 08:20 amWNW 5.8 7.8 0.3-3.0-29.88- 40.5 38.8 40.5---
2024-04-19 08:10 amWNW 7.8 7.8----29.87- 40.1 38.8 39.9---
2024-04-19 08:00 amWNW 5.8 7.8----29.87-0.02 39.7 38.8 39.6---
2024-04-19 07:50 amWNW 5.8 7.8 0.3-2.9-29.87- 39.7 38.8 39.6---
2024-04-19 07:40 amWNW 5.8 7.8----29.88- 39.7 38.8 39.6---
2024-04-19 07:30 amWNW 5.8 5.8----29.87- 39.7 38.8 39.6---
2024-04-19 07:20 amWNW 5.8 5.8 0.3-2.8-29.88- 39.9 38.8 39.7---
2024-04-19 07:10 amWNW 5.8 5.8 0.3-2.8-29.88- 40.1 38.8 39.9---
2024-04-19 07:00 amWNW 7.8 7.8----29.88-0.03 40.1 38.8 39.9---
2024-04-19 06:50 amWNW 7.8 9.7 0.3-2.9-29.88- 40.3 38.8 40.1---
2024-04-19 06:40 amWNW 7.8 9.7 0.3-2.9-29.88- 40.6 38.8 40.5---
2024-04-19 06:30 amWNW 5.8 7.8----29.89- 40.5 38.8 40.1---
2024-04-19 06:20 amWNW 5.8 5.8 0.3-2.8-29.89- 40.6 38.8 40.1---
2024-04-19 06:10 am W 5.8 5.8 0.3-2.8-29.89- 41.4 38.8 40.6---
2024-04-19 06:00 amWSW 3.9 3.9----29.89-0.02 41.9 38.8 41.0---
2024-04-19 05:50 amSSW 1.9 1.9 0.3-2.9-29.89- 42.4 38.8 41.5---
2024-04-19 05:40 amSSW 1.9 1.9 0.3-2.9-29.90- 42.1 38.8 41.2---
2024-04-19 05:30 amWSW 1.9 3.9----29.90- 41.7 38.8 40.8---
2024-04-19 05:20 am NW 1.9 3.9 0.7-2.8-29.90- 41.5- 40.5---
2024-04-19 05:10 amWNW 1.9 3.9 0.7-2.8-29.90- 41.5 38.8 40.3---
2024-04-19 05:00 am- 0.0 0.0----29.89-0.05 41.4 38.8 40.1---
2024-04-19 04:50 amESE 1.9 3.9 0.7-2.9-29.90- 41.4 38.8 40.1---
2024-04-19 04:40 amSSE 1.9 3.9 0.7-2.9-29.90- 41.4 38.8 39.9---
2024-04-19 04:30 amSSE 1.9 3.9----29.91- 41.7 38.8 40.1---
2024-04-19 04:20 amSSE 1.9 1.9 0.7-3.0-29.91- 42.1 38.8 40.5---
2024-04-19 04:10 amSSE 1.9 3.9 0.7-3.0-29.91- 42.1 38.8 40.1---
2024-04-19 04:00 am SE 1.9 3.9----29.91-0.08 42.3 38.8 40.3---
2024-04-19 03:50 amESE 1.9 3.9 0.7-3.4-29.91- 42.3 38.8 40.3---
2024-04-19 03:40 amESE 3.9 5.8 0.7-3.4-29.91- 42.4 38.8 40.3---
2024-04-19 03:30 amESE 5.8 7.8----29.90- 42.4 38.8 40.3---
2024-04-19 03:20 am E 7.8 9.7 0.7-3.5-29.89- 42.3 38.8 40.3---
2024-04-19 03:10 amESE 9.7 11.7 0.7-3.5-29.89- 42.3 38.8 40.1---
2024-04-19 03:00 amESE 9.7 11.7----29.91-0.12 42.1 38.8 40.1---
2024-04-19 02:50 amESE 9.7 11.7 0.7-3.6-29.91- 42.3 38.8 40.1---
2024-04-19 02:40 amESE 9.7 11.7----29.92- 41.9 38.8 39.9---
2024-04-19 02:30 amESE 7.8 9.7----29.93- 42.1 38.8 39.9---
2024-04-19 02:20 amESE 7.8 9.7 0.7-3.6-29.94- 42.3 38.8 40.1---
2024-04-19 02:10 amESE 7.8 9.7 0.7-3.6-29.94- 42.3 38.8 39.9---
2024-04-19 02:00 amESE 7.8 9.7----29.95-0.09 42.3 38.8 39.7---
2024-04-19 01:50 amESE 7.8 7.8 0.7-3.8-29.95- 42.1 38.8 39.6---
2024-04-19 01:40 amESE 7.8 7.8----29.96- 42.3 38.8 39.6---
2024-04-19 01:30 amESE 7.8 9.7----29.98- 42.4 38.8 39.7---
2024-04-19 01:20 amESE 7.8 9.7 0.7-3.7-29.98- 42.3 38.8 39.6---
2024-04-19 01:10 am E 5.8 5.8 0.7-3.7-29.98- 41.9 38.8 39.2---
2024-04-19 01:00 amESE 5.8 5.8----29.99-0.06 41.9 38.8 39.2---
2024-04-19 12:50 amESE 3.9 5.8 1.0 53.8NNW30.00- 41.9 38.8 39.2---
2024-04-19 12:40 amESE 3.9 3.9 1.0-3.8NNW30.01- 41.7 38.8 39.2---
2024-04-19 12:30 am E 3.9 3.9----30.01- 41.4 38.8 39.0---
2024-04-19 12:20 amESE 3.9 3.9 1.0 43.8NNE30.01- 41.4 38.8 39.2---
2024-04-19 12:10 am SE 3.9 3.9 1.0-3.8NNE30.03- 41.0 38.8 38.8---
2024-04-19 12:00 am SE 3.9 3.9----30.03-0.02 40.8 38.8 38.8---
2024-04-18 11:50 pm SE 3.9 3.9 1.0 53.8NNW30.03- 40.8 38.8 38.8---
2024-04-18 11:40 pmESE 3.9 3.9 1.0-3.8NNW30.03- 41.0 38.8 39.0---
2024-04-18 11:30 pm E 1.9 1.9----30.03- 41.0 38.8 39.0---
2024-04-18 11:20 pmENE 1.9 3.9 1.0 54.0NNW30.02- 40.5 38.8 38.8---
2024-04-18 11:10 pm E 1.9 3.9 1.0-4.0NNW30.02- 40.6 38.8 38.8---
2024-04-18 11:00 pmESE 1.9 3.9----30.03+0.00 40.5 38.8 38.8---
2024-04-18 10:50 pm SE 1.9 1.9 1.0 53.9NNW30.05- 40.1 38.8 38.7---
2024-04-18 10:40 pm- 0.0 1.9 1.0-3.9NNW30.05- 40.1 38.8 38.7---
2024-04-18 10:30 pm E 1.9 1.9----30.05- 40.1 38.8 38.7---
2024-04-18 10:20 pm E 1.9 3.9 1.0 43.9NNW30.05- 40.1 38.8 38.7---
2024-04-18 10:10 pm E 1.9 3.9 1.0-3.9NNW30.05- 40.3 38.8 38.7---
2024-04-18 10:00 pm SE 1.9 1.9----30.05+0.01 40.5 38.8 38.8---
2024-04-18 09:50 pmSSE 1.9 1.9 1.0 53.9NNW30.05- 40.3 38.8 38.7---
2024-04-18 09:40 pmSSE 1.9 3.9----30.05- 40.3 38.8 38.7---
2024-04-18 09:30 pmSSE 3.9 3.9----30.05- 40.3 38.8 38.7---
2024-04-18 09:20 pm S 5.8 5.8 1.0 53.8NNW30.06- 40.5 38.8 38.8---
2024-04-18 09:10 pm S 5.8 5.8 1.0-3.8NNW30.05- 40.3 38.8 38.8---
2024-04-18 09:00 pm S 5.8 7.8----30.06+0.01 40.3 38.8 38.7---
2024-04-18 08:50 pm S 5.8 7.8 1.0 53.8NNW30.06- 40.5 38.8 38.8---
2024-04-18 08:40 pmSSE 5.8 5.8----30.05- 40.3 38.8 38.7---
2024-04-18 08:30 pmSSE 3.9 5.8----30.04- 40.1 38.8 38.7---
2024-04-18 08:20 pm S 3.9 3.9 1.0 53.7NNW30.04- 40.1 38.8 38.5---
2024-04-18 08:10 pm S 3.9 3.9 1.0-3.7NNW30.05- 40.3 38.8 38.7---
2024-04-18 08:00 pm SE 3.9 3.9----30.03+0.00 40.3 38.8 38.7---
2024-04-18 07:50 pm SE 3.9 3.9 1.0 53.7NNW30.03- 40.3 38.8 38.7---
2024-04-18 07:40 pm SE 3.9 5.8----30.03- 40.5 38.8 38.8---
2024-04-18 07:20 pm SE 3.9 5.8 1.0 33.4 W30.03- 40.6 38.8 38.7---
2024-04-18 07:10 pm SE 3.9 5.8 1.0-3.4 W30.03- 40.6 38.8 38.7---
2024-04-18 07:00 pm SE 3.9 5.8----30.03-0.02 40.6 38.8 38.7---
2024-04-18 06:50 pm SE 3.9 5.8 0.7-3.3-30.03- 40.8 38.8 38.8---
2024-04-18 06:40 pmESE 3.9 5.8----30.03- 40.6 38.8 38.7---
2024-04-18 06:30 pmESE 3.9 5.8----30.03- 40.8 38.8 38.8---
2024-04-18 06:20 pmESE 3.9 3.9 1.0 33.2WNW30.03- 41.2 38.8 39.0---
2024-04-18 06:10 pm SE 3.9 3.9 1.0-3.2WNW30.04- 41.4 38.8 38.8---
2024-04-18 06:00 pm SE 3.9 5.8----30.04-0.03 41.9 38.7 39.2---
2024-04-18 05:50 pmSSE 3.9 3.9 1.0 33.1 W30.05- 41.9 38.8 39.2---

Detailed Wave Summary
for 45008 as of (5:10 pm EDT)
2110 GMT on 04/19/2024:

These wave data are displayed in rounded times.

     

Click on the graph icon in the table below to see a time series plot of the last five days of that observation.

5-day plot - Significant Wave Height Significant Wave Height (WVHT): 2.6 ft
5-day plot - Swell Height Swell Height (SwH): 0.0 ft
5-day plot - Wind Wave Height Wind Wave Height (WWH): 2.6 ft
5-day plot - Wind Wave Period Wind Wave Period (WWP): 4.0 sec
5-day plot - Wind Wave Direction Wind Wave Direction (WWD):WSW
5-day plot - Average Wave Period Average Wave Period (APD): 3.4 sec
Previous observations
TIME
(EDT)
5-day plot - Wave Height
WVHT
ft
5-day plot - Swell Height
SwH
ft
5-day plot - Swell Period
SwP
sec
5-day plot - Swell Direction
SwD
 
5-day plot - Wind Wave Height
WWH
ft
5-day plot - Wind Wave Period
WWP
sec
5-day plot - Wind Wave Direction
WWD
 
5-day plot - Wave Steepness
STEEPNESS
 
5-day plot - Average Wave Period
APD
sec
2024-04-19 04:40 pm 2.6 0.0 7.1WSW 2.6 3.8 WSW N/A 3.4
2024-04-19 04:10 pm 2.3 0.0 6.7 SW 2.3 3.7 WSW N/A 3.2
2024-04-19 03:40 pm 2.3 0.0 7.1 SW 2.3 4.0 WSW N/A 3.2
2024-04-19 03:10 pm 2.3 0.0 7.7WSW 2.3 3.7 WSW N/A 3.2
2024-04-19 02:40 pm 2.3 0.0-- 2.3 3.8 SW N/A 3.3
2024-04-19 02:10 pm 2.3 0.0 7.1 SW 2.3 3.6 WSW N/A 3.2
2024-04-19 01:40 pm 2.0 0.0 6.7WNW 2.0 3.0 WSW N/A 3.0
2024-04-19 01:10 pm 1.6 0.3 7.1WSW 1.6 2.9 WSW N/A 2.8
2024-04-19 12:40 pm 1.3 0.0 5.6 W 1.3 2.6 W N/A 2.5
2024-04-19 12:10 pm 0.7------ N/A 2.3
2024-04-19 11:40 am 0.7------ N/A 2.3
2024-04-19 11:10 am 0.7------ N/A 2.2
2024-04-19 10:40 am 0.7------ N/A 2.3
2024-04-19 10:10 am 0.7------ N/A 2.3
2024-04-19 09:40 am 0.3------ N/A 2.5
2024-04-19 09:10 am 0.3------ N/A 3.2
2024-04-19 08:40 am 0.3------ N/A 3.1
2024-04-19 08:10 am 0.3------ N/A 3.0
2024-04-19 07:40 am 0.3------ N/A 2.9
2024-04-19 07:10 am 0.3------ N/A 2.8
2024-04-19 06:40 am 0.3------ N/A 2.9
2024-04-19 06:10 am 0.3------ N/A 2.8
2024-04-19 05:40 am 0.3------ N/A 2.9
2024-04-19 05:10 am 0.7------ N/A 2.8
2024-04-19 04:40 am 0.7------ N/A 2.9
2024-04-19 04:10 am 0.7------ N/A 3.0
2024-04-19 03:40 am 0.7------ N/A 3.4
2024-04-19 03:10 am 0.7------ N/A 3.5
2024-04-19 02:40 am 0.7------ N/A 3.6
2024-04-19 02:10 am 0.7------ N/A 3.6
2024-04-19 01:40 am 0.7------ N/A 3.8
2024-04-19 01:10 am 0.7------ N/A 3.7
2024-04-19 12:40 am 1.0 0.7 4.5NNW 0.7 3.3 NNW N/A 3.8
2024-04-19 12:10 am 1.0 0.7 4.3NNE 0.7 3.6 NNW N/A 3.8
2024-04-18 11:40 pm 1.0 0.7 5.9NNW 0.7 3.8 NNW N/A 3.8
2024-04-18 11:10 pm 1.0 0.7 4.8NNW 0.7 3.7 NNW N/A 4.0
2024-04-18 10:40 pm 1.0 0.7 4.5NNW 0.7 2.9 WNW N/A 3.9
2024-04-18 10:10 pm 1.0 0.7 4.3NNW 0.7 3.7 NNW N/A 3.9
2024-04-18 09:40 pm 1.0 0.7 4.5NNW 0.7 3.7 NNW N/A 3.9
2024-04-18 09:10 pm 1.0 0.7 5.0NNW 0.7 4.0 NNW N/A 3.8
2024-04-18 08:40 pm 1.0 0.7 4.8NNW 0.7 3.8 NNW N/A 3.8
2024-04-18 08:10 pm 1.0 0.7 4.8NNW 0.7 3.7 NNW N/A 3.7
2024-04-18 07:40 pm 1.0 0.7 5.3NNW 0.7 3.2 WNW N/A 3.7
2024-04-18 07:10 pm 1.0 0.7 4.5NNW 0.7 3.3 W N/A 3.4
2024-04-18 06:40 pm 0.7------ N/A 3.3
2024-04-18 06:10 pm 1.0 0.3 5.9NNW 0.7 3.3 WNW N/A 3.2

Plot of wave energy versus frequency (and period)